This demonstration page uses our WeatherBlox Daily Observations layout. Learn more.

Left ArrowRight Arrow

Hourly Observations for July 15, 2022

Temp ( °F °C ) Dew Point ( °F °C ) Humidity (%) Winds ( mph kmh ) Pressure ( in mb ) Visibility ( mi km ) Precip ( " mm )
12:53 am 00:53 Mostly Cloudy 70 21.1 54 12.2 57 57 Calm 30.05 1018 10 16 0.00 0.00
1:53 am 01:53 Clear 70 21.1 52 11.1 53 53 SE 10 17 30.04 1017 10 16 0.00 0.00
2:53 am 02:53 Cloudy 68 20 53 11.7 59 59 ESE 7 11 30.03 1017 10 16 0.00 0.00
3:53 am 03:53 Clear 69 20.6 52 11.1 55 55 Calm 30.06 1018 10 16 0.00 0.00
4:53 am 04:53 Clear 65 18.3 54 12.2 68 68 NNW 3 6 30.09 1019 10 16 0.00 0.00
5:53 am 05:53 Sunny 64 17.8 52 11.1 65 65 Calm 30.10 1019 10 16 0.00 0.00
6:53 am 06:53 Mostly Sunny 65 18.3 55 12.8 70 70 Calm 30.11 1020 10 16 0.00 0.00
7:53 am 07:53 Mostly Cloudy 67 19.4 56 13.3 68 68 Calm 30.12 1020 10 16 0.00 0.00
8:53 am 08:53 Mostly Sunny 72 22.2 56 13.3 57 57 ENE 8 13 30.12 1020 10 16 0.00 0.00
9:53 am 09:53 Sunny 76 24.4 54 12.2 47 47 NNW 3 6 30.12 1020 10 16 0.00 0.00
10:53 am 10:53 Mostly Cloudy 81 27.2 54 12.2 39 39 Calm 30.06 1018 10 16 0.00 0.00
11:53 am 11:53 Sunny 84 28.9 53 11.7 34 34 VRB 5 7 30.07 1018 10 16 0.00 0.00
12:53 pm 12:53 Partly Cloudy 85 29.4 52 11.1 32 32 SSW 13 20 30.04 1017 10 16 0.00 0.00
1:53 pm 13:53 Mostly Cloudy with Nearby Thunderstorms 84 28.9 52 11.1 33 33 W 16 26 30.02 1017 10 16 0.00 0.00
2:12 pm 14:12 Mostly Cloudy with Nearby Thunderstorms 73 22.8 57 13.9 57 57 WSW 30 48 29.87 1012 1 1 0.16 4.06
2:19 pm 14:19 Cloudy with Strong Thunderstorms 64 17.8 58 14.4 81 81 WNW 20 31 29.98 1015 1 1 0.34 8.64
2:24 pm 14:24 Cloudy with Thunderstorms 64 17.8 58 14.4 81 81 NW 12 19 29.97 1015 2 2 0.34 8.64
2:26 pm 14:26 Cloudy with Thunderstorms 64 17.8 58 14.4 81 81 NW 10 17 29.97 1015 5 8 0.34 8.64
2:48 pm 14:48 Mostly Cloudy with Nearby Thunderstorms 75 24 63 17 65 65 NE 5 7 29.82 1010 10 16 0.34 8.64
2:53 pm 14:53 Partly Cloudy with Nearby Thunderstorms 75 23.9 61 16.1 62 62 ENE 3 6 30.06 1018 10 16 0.34 8.64
3:11 pm 15:11 Sunny 78 25.6 61 16.1 56 56 Calm 29.78 1009 10 16 0.00 0.00
3:41 pm 15:41 Partly Cloudy with Nearby Thunderstorms 80 26.7 58 14.4 47 47 Calm 29.75 1007 10 16 0.00 0.00
3:53 pm 15:53 Mostly Sunny 82 27.8 57 13.9 42 42 Calm 30.02 1017 10 16 0.00 0.00
4:53 pm 16:53 Sunny 82 27.8 58 14.4 44 44 NE 6 9 30.01 1016 10 16 0.00 0.00
5:08 pm 17:08 Partly Cloudy with Nearby Thunderstorms 83 28.3 59 15 44 44 VRB 6 9 29.68 1005 10 16 0.00 0.00
5:23 pm 17:23 Mostly Sunny 83 28.3 57 13.9 41 41 VRB 3 6 29.68 1005 10 16 0.00 0.00
5:35 pm 17:35 Partly Cloudy with Thunderstorms 82 27.8 55 12.8 40 40 NE 3 6 29.68 1005 10 16 0.00 0.00
6:11 pm 18:11 Partly Cloudy with Nearby Thunderstorms 75 23.9 57 13.9 54 54 SSE 6 9 29.76 1008 10 16 0.00 0.00
6:31 pm 18:31 Partly Cloudy with Thunderstorms 75 23.9 58 14.4 55 55 W 6 9 29.77 1008 10 16 0.00 0.00
6:43 pm 18:43 Mostly Cloudy 75 23.9 55 12.8 50 50 W 8 13 29.77 1008 10 16 0.00 0.00
6:53 pm 18:53 Mostly Cloudy with Nearby Thunderstorms 74 23.3 56 13.3 54 54 NW 3 6 30.03 1017 10 16 0.00 0.00
7:50 pm 19:50 Mostly Cloudy 75 24 55 13 50 50 ENE 8 13 29.80 1009 10 16 0.00 0.00
7:53 pm 19:53 Cloudy with Light Rain 74 23.3 56 13.3 54 54 E 10 17 30.05 1018 8 13 0.02 0.51
8:53 pm 20:53 Mostly Clear 66 18.9 58 14.4 75 75 SE 10 17 30.06 1018 10 16 0.00 0.00
9:53 pm 21:53 Cloudy 69 20.6 57 13.9 66 66 Calm 30.09 1019 10 16 0.00 0.00
10:53 pm 22:53 Mostly Cloudy 68 20 55 12.8 63 63 undefined N/A 30.07 1018 10 16 0.00 0.00
11:48 pm 23:48 Cloudy with Nearby Thunderstorms 66 19 57 14 73 73 NNW 15 24 29.97 1015 10 16 0.00 0.00
11:53 pm 23:53 Cloudy with Nearby Thunderstorms 65 18.3 59 15 81 81 NNW 10 17 30.11 1020 9 14 0.00 0.00

Powered by AerisWeather